Scottsbluff, NE

9:43 AM MDT on August 18, 2019 (GMT -0600)
Heilig

Weather History for KBFF - June, 2019

Change the Weather History Date:

Thursday, June 6, 2019

  Actual Average Record
Temperature  
Mean Temperature 68 °F -  
Max Temperature 84 °F 80 °F 102 °F (2004)
Min Temperature 52 °F 51 °F 33 °F (1998)
Cooling Degree Days 3    
Growing Degree Days 18 (Base 50)    
Moisture  
Dew Point 55 °F    
Average Humidity 63    
Maximum Humidity 93    
Minimum Humidity 35    
Precipitation  
Precipitation 0.00 in - - ()
Sea Level Pressure  
Sea Level Pressure 29.84 in    
Wind  
Wind Speed 8 mph (SE)    
Max Wind Speed 16 mph    
Max Gust Speed 23 mph    
Visibility 10 miles    
Events      
Averages and records for this station are not official NWS values.
T = Trace of Precipitation, MM = Missing Value Source: NWS Daily Summary

Daily Weather History Graph

Daily Weather History Graph

Search for Another Location

Airport or City:

Astronomy

Jun. 06, 2019 Rise Set
Actual Time 5:19 AM MDT 8:26 PM MDT
Civil Twilight 4:46 AM MDT 9:00 PM MDT
Nautical Twilight 4:02 AM MDT 9:43 PM MDT
Astronomical Twilight 3:11 AM MDT 10:35 PM MDT
Moon 8:31 AM MDT (6/6) 11:45 PM MDT (6/6)
Length of Visible Light 16h 14m
Length of Day
15h 06m
Waxing Crescent, 14% of the Moon is Illuminated
Jun 6
Waxing Crescent
Jun 10
First Quarter
Jun 17
Full
Jun 25
Last Quarter
Jul 2
New

Hourly Weather History & Observations

Time (MDT) Temp. Heat Index Dew Point Humidity Pressure Visibility Wind Dir Wind Speed Gust Speed Precip Events Conditions
12:53 AM 57.9 °F - 52.0 °F 81% 29.88 in 10.0 mi East 4.6 mph - N/A   Clear
1:53 AM 55.9 °F - 51.1 °F 84% 29.87 in 10.0 mi East 8.1 mph - N/A   Clear
2:53 AM 53.1 °F - 50.0 °F 89% 29.86 in 10.0 mi ENE 5.8 mph - N/A   Clear
3:53 AM 54.0 °F - 51.1 °F 90% 29.86 in 10.0 mi Calm Calm - N/A   Clear
4:53 AM 52.0 °F - 48.9 °F 89% 29.88 in 10.0 mi Calm Calm - N/A   Clear
5:53 AM 52.0 °F - 50.0 °F 93% 29.89 in 10.0 mi NE 6.9 mph - N/A   Clear
6:53 AM 61.0 °F - 55.0 °F 81% 29.89 in 10.0 mi Calm Calm - N/A   Clear
7:53 AM 63.0 °F - 55.0 °F 75% 29.89 in 10.0 mi SE 5.8 mph - N/A   Clear
8:53 AM 68.0 °F - 55.9 °F 65% 29.89 in 10.0 mi SE 5.8 mph - N/A   Clear
9:53 AM 73.9 °F - 55.9 °F 53% 29.87 in 10.0 mi SE 9.2 mph - N/A   Clear
10:53 AM 78.1 °F - 60.1 °F 54% 29.86 in 10.0 mi SE 9.2 mph - N/A   Clear
11:53 AM 81.0 °F 81.7 °F 61.0 °F 50% 29.85 in 10.0 mi SE 13.8 mph - N/A   Clear
12:53 PM 82.9 °F 83.3 °F 61.0 °F 47% 29.84 in 10.0 mi SE 13.8 mph 23.0 mph N/A   Clear
1:53 PM 84.0 °F 84.4 °F 61.0 °F 46% 29.83 in 10.0 mi South 13.8 mph 23.0 mph N/A   Clear
2:53 PM 84.0 °F 84.4 °F 61.0 °F 46% 29.82 in 10.0 mi South 12.7 mph - N/A   Clear
3:53 PM 84.0 °F 84.4 °F 61.0 °F 46% 29.81 in 10.0 mi SSE 13.8 mph - N/A   Clear
4:53 PM 82.9 °F 83.2 °F 60.1 °F 46% 29.80 in 10.0 mi SSE 16.1 mph - N/A   Clear
5:53 PM 82.0 °F 82.1 °F 59.0 °F 45% 29.80 in 10.0 mi SE 15.0 mph - N/A   Clear
6:53 PM 79.0 °F - 55.9 °F 45% 29.79 in 10.0 mi SE 13.8 mph - N/A   Clear
7:53 PM 73.9 °F - 52.0 °F 46% 29.79 in 10.0 mi SE 11.5 mph 20.7 mph N/A   Clear
8:53 PM 71.1 °F - 53.1 °F 53% 29.79 in 10.0 mi SE 9.2 mph - N/A   Clear
9:53 PM 63.0 °F - 52.0 °F 67% 29.81 in 10.0 mi ESE 8.1 mph - N/A   Clear
10:53 PM 61.0 °F - 52.0 °F 72% 29.81 in 10.0 mi ESE 5.8 mph - N/A   Clear
11:53 PM 60.1 °F - 52.0 °F 75% 29.79 in 10.0 mi ESE 10.4 mph - N/A   Clear